Location: Roswell
(33.3943°N, 104.5230°W)
Time: 06:02:10
(UTC+00:00)

ACS3 Solar Sail - Visible Passes

Search period start: 14 October 2024 00:00
Search period end: 24 October 2024 00:00
Orbit: 960 x 1033 km, 97.5° (Epoch: 13 October)

Date Brightness Start Highest point End Pass type
(mag) Time Alt. Az. Time Alt. Az. Time Alt. Az.
14 Oct 2.8 02:02:45 28° NE 02:02:45 28° NE 02:07:13 10° NNE visible
14 Oct 3.5 03:47:52 29° NW 03:47:52 29° NW 03:51:23 10° NNW visible
15 Oct 2.4 02:34:22 43° NNE 02:34:22 43° NNE 02:38:55 10° N visible
15 Oct 4.3 04:19:29 16° WNW 04:19:29 16° WNW 04:21:23 10° NW visible
16 Oct 3.5 01:20:52 13° ENE 01:20:52 13° ENE 01:23:35 10° NE visible
16 Oct 2.6 03:06:00 45° NNW 03:06:00 45° NNW 03:10:12 10° NNW visible
17 Oct 3.0 01:52:31 24° NE 01:52:31 24° NE 01:56:30 10° NNE visible
17 Oct 3.4 03:37:38 30° NW 03:37:38 30° NW 03:41:03 10° NNW visible
18 Oct 2.5 02:24:09 37° NNE 02:24:09 37° NNE 02:28:23 10° N visible
18 Oct 4.2 04:09:16 17° WNW 04:09:16 17° WNW 04:11:18 10° NW visible
19 Oct 3.6 01:10:41 11° ENE 01:10:41 11° ENE 01:12:06 10° NE visible
19 Oct 2.6 02:55:49 42° N 02:55:49 42° N 02:59:47 10° N visible
20 Oct 3.1 01:42:21 21° NE 01:42:21 21° NE 01:45:48 10° NNE visible
20 Oct 3.3 03:27:28 31° NW 03:27:28 31° NW 03:30:47 10° NNW visible
21 Oct 2.7 02:14:02 32° NE 02:14:02 32° NE 02:17:53 10° N visible
21 Oct 4.1 03:59:09 19° NW 03:59:09 19° NW 04:01:15 10° NW visible
22 Oct 2.7 02:45:43 38° N 02:45:43 38° N 02:49:25 10° N visible
23 Oct 3.3 01:32:17 17° NE 01:32:17 17° NE 01:35:07 10° NNE visible
23 Oct 3.3 03:17:24 31° NNW 03:17:24 31° NNW 03:20:33 10° NNW visible
